AXM1511 RCTP-WBKK

Flight info

Callsign AXM1511
Flight time 3h 21m
Altitude 36000
Route TINHO1A TINHO Q11 WAGON B591 JICHI Q11 POTIB M646 SANRO B591 LUBAN DCT TOKON DCT TIBOR DCT OSANU DCT VETAG VETAG1B
Aircraft A320/M-SDE3FGHIRWY/LB1

Departure

Time 2026-05-09 01:50
Airport Taiwan Taoyuan International Airport (RCTP)

Arrival

Time 2026-05-09 05:11
Airport Kota Kinabalu International Airport (WBKK)
Time Latitude Longitude Altitude Speed Heading
2026-05-09 01:30 25.07426 121.23203 101 ft 0 kts 319°
2026-05-09 01:41 25.07425 121.23204 101 ft 2 kts 319°
2026-05-09 01:41 25.07406 121.23223 99 ft 4 kts 319°
2026-05-09 01:41 25.07385 121.23242 99 ft 4 kts 319°
2026-05-09 01:42 25.07366 121.23261 101 ft 2 kts 319°
2026-05-09 01:42 25.07350 121.23278 99 ft 4 kts 297°
2026-05-09 01:42 25.07345 121.23304 98 ft 4 kts 243°
2026-05-09 01:42 25.07357 121.23323 98 ft 2 kts 229°
2026-05-09 01:43 25.07358 121.23324 98 ft 0 kts 229°
2026-05-09 01:44 25.07357 121.23323 99 ft 1 kts 229°
2026-05-09 01:44 25.07339 121.23300 99 ft 8 kts 229°
2026-05-09 01:45 25.07288 121.23234 101 ft 13 kts 229°
2026-05-09 01:45 25.07225 121.23182 101 ft 11 kts 185°
2026-05-09 01:45 25.07167 121.23218 100 ft 10 kts 140°
2026-05-09 01:45 25.07100 121.23276 100 ft 12 kts 156°
2026-05-09 01:46 25.07019 121.23221 100 ft 17 kts 229°
2026-05-09 01:46 25.06944 121.23126 99 ft 15 kts 229°
2026-05-09 01:46 25.06874 121.23037 100 ft 18 kts 229°
2026-05-09 01:46 25.06792 121.22932 99 ft 18 kts 229°
2026-05-09 01:47 25.06697 121.22812 102 ft 21 kts 228°
2026-05-09 01:47 25.06607 121.22698 99 ft 19 kts 229°
2026-05-09 01:47 25.06526 121.22595 100 ft 17 kts 229°
2026-05-09 01:47 25.06454 121.22504 100 ft 15 kts 229°
2026-05-09 01:48 25.06389 121.22425 102 ft 14 kts 217°
2026-05-09 01:48 25.06306 121.22453 98 ft 15 kts 137°
2026-05-09 01:48 25.06245 121.22540 95 ft 15 kts 92°
2026-05-09 01:48 25.06296 121.22624 98 ft 4 kts 49°
2026-05-09 01:49 25.06316 121.22650 95 ft 22 kts 49°
2026-05-09 01:49 25.06576 121.22978 93 ft 89 kts 48°
2026-05-09 01:49 25.07105 121.23646 94 ft 140 kts 49°
2026-05-09 01:49 25.07805 121.24534 428 ft 155 kts 48°
2026-05-09 01:50 25.08520 121.25425 1121 ft 155 kts 50°
2026-05-09 01:50 25.09232 121.26365 1593 ft 168 kts 51°
2026-05-09 01:50 25.10029 121.27425 1804 ft 193 kts 52°
2026-05-09 01:50 25.10932 121.28649 2144 ft 217 kts 56°
2026-05-09 01:51 25.11464 121.30260 2512 ft 238 kts 89°
2026-05-09 01:51 25.11023 121.32041 3176 ft 247 kts 122°
2026-05-09 01:51 25.09798 121.33405 3916 ft 253 kts 137°
2026-05-09 01:51 25.08458 121.34660 4759 ft 255 kts 139°
2026-05-09 01:52 25.07107 121.35910 5534 ft 260 kts 141°
2026-05-09 01:52 25.05697 121.37215 6225 ft 267 kts 143°
2026-05-09 01:52 25.04256 121.38554 6879 ft 274 kts 143°
2026-05-09 01:52 25.02784 121.39931 7590 ft 281 kts 143°
2026-05-09 01:53 25.01277 121.41342 8300 ft 287 kts 143°
2026-05-09 01:53 24.99738 121.42777 8997 ft 293 kts 143°
2026-05-09 01:53 24.98168 121.44243 9669 ft 299 kts 143°
2026-05-09 01:53 24.96567 121.45742 10265 ft 308 kts 143°
2026-05-09 01:54 24.94864 121.47331 10475 ft 332 kts 143°
2026-05-09 01:54 24.93038 121.49039 10720 ft 354 kts 143°
2026-05-09 01:54 24.91131 121.50824 11245 ft 364 kts 142°
2026-05-09 01:54 24.89195 121.52643 11839 ft 369 kts 142°
2026-05-09 01:55 24.87229 121.54490 12410 ft 374 kts 142°
2026-05-09 01:55 24.85243 121.56356 12972 ft 378 kts 142°
2026-05-09 01:55 24.83222 121.58245 13500 ft 383 kts 142°
2026-05-09 01:55 24.81177 121.60148 14067 ft 387 kts 142°
2026-05-09 01:56 24.79113 121.62071 14543 ft 391 kts 142°
2026-05-09 01:56 24.77034 121.64011 15029 ft 394 kts 142°
2026-05-09 01:56 24.74932 121.65975 15488 ft 398 kts 142°
2026-05-09 01:56 24.72815 121.67953 15963 ft 402 kts 142°
2026-05-09 01:57 24.70673 121.69954 16454 ft 405 kts 142°
2026-05-09 01:57 24.68511 121.71972 16968 ft 410 kts 143°
2026-05-09 01:57 24.66327 121.74007 17488 ft 414 kts 143°
2026-05-09 01:57 24.64121 121.76060 18010 ft 418 kts 143°
2026-05-09 01:58 24.61891 121.78134 18515 ft 422 kts 143°
2026-05-09 01:58 24.59636 121.80227 18927 ft 425 kts 143°
2026-05-09 01:58 24.57370 121.82334 19380 ft 428 kts 143°
2026-05-09 01:58 24.55098 121.84451 19792 ft 430 kts 142°
2026-05-09 01:59 24.52810 121.86580 20208 ft 432 kts 143°
2026-05-09 01:59 24.50509 121.88721 20636 ft 435 kts 143°
2026-05-09 01:59 24.48192 121.90872 21058 ft 437 kts 143°
2026-05-09 01:59 24.45898 121.92999 21458 ft 439 kts 143°
2026-05-09 02:00 24.43558 121.95168 21868 ft 442 kts 143°
2026-05-09 02:00 24.41194 121.97336 22273 ft 443 kts 146°
2026-05-09 02:00 24.38603 121.99137 22649 ft 440 kts 158°
2026-05-09 02:00 24.35760 122.00331 23018 ft 436 kts 169°
2026-05-09 02:01 24.32777 122.00896 23375 ft 433 kts 181°
2026-05-09 02:01 24.29782 122.00820 23733 ft 429 kts 192°
2026-05-09 02:01 24.26884 122.00131 24058 ft 426 kts 201°
2026-05-09 02:01 24.24042 121.99194 24354 ft 428 kts 201°
2026-05-09 02:02 24.21186 121.98257 24634 ft 430 kts 201°
2026-05-09 02:02 24.18313 121.97318 24914 ft 432 kts 201°
2026-05-09 02:02 24.15430 121.96377 25190 ft 434 kts 201°
2026-05-09 02:02 24.12529 121.95434 25465 ft 436 kts 201°
2026-05-09 02:03 24.09616 121.94487 25742 ft 438 kts 201°
2026-05-09 02:03 24.06687 121.93536 26035 ft 440 kts 201°
2026-05-09 02:03 24.03745 121.92581 26335 ft 442 kts 201°
2026-05-09 02:03 24.00791 121.91622 26606 ft 444 kts 202°
2026-05-09 02:04 23.97826 121.90657 26870 ft 445 kts 202°
2026-05-09 02:04 23.94850 121.89687 27127 ft 447 kts 202°
2026-05-09 02:04 23.91864 121.88717 27375 ft 449 kts 202°
2026-05-09 02:04 23.88861 121.87741 27623 ft 450 kts 202°
2026-05-09 02:05 23.85854 121.86769 27872 ft 452 kts 202°
2026-05-09 02:05 23.82830 121.85791 28106 ft 454 kts 202°
2026-05-09 02:05 23.79799 121.84808 28346 ft 456 kts 202°
2026-05-09 02:05 23.76750 121.83816 28573 ft 457 kts 202°
2026-05-09 02:06 23.73696 121.82822 28797 ft 459 kts 202°
2026-05-09 02:06 23.70625 121.81825 29011 ft 461 kts 202°
2026-05-09 02:06 23.67551 121.80831 29222 ft 462 kts 202°
2026-05-09 02:07 23.61365 121.78837 29629 ft 465 kts 202°
2026-05-09 02:07 23.58255 121.77832 29823 ft 467 kts 202°
2026-05-09 02:07 23.55140 121.76824 30015 ft 468 kts 202°
2026-05-09 02:07 23.52012 121.75810 30188 ft 469 kts 202°
2026-05-09 02:08 23.48920 121.74807 30347 ft 471 kts 202°
2026-05-09 02:08 23.45780 121.73790 30517 ft 471 kts 202°
2026-05-09 02:08 23.42642 121.72774 30750 ft 470 kts 202°
2026-05-09 02:08 23.39504 121.71761 30983 ft 470 kts 202°
2026-05-09 02:09 23.36373 121.70754 31202 ft 469 kts 202°
2026-05-09 02:09 23.33244 121.69746 31420 ft 469 kts 202°
2026-05-09 02:09 23.30118 121.68739 31637 ft 468 kts 202°
2026-05-09 02:09 23.26996 121.67734 31861 ft 468 kts 202°
2026-05-09 02:10 23.23874 121.66729 32084 ft 468 kts 202°
2026-05-09 02:10 23.20754 121.65724 32295 ft 468 kts 202°
2026-05-09 02:10 23.17636 121.64722 32522 ft 467 kts 202°
2026-05-09 02:10 23.14523 121.63722 32750 ft 467 kts 202°
2026-05-09 02:11 23.11406 121.62717 32969 ft 466 kts 202°
2026-05-09 02:11 23.08299 121.61716 33173 ft 466 kts 202°
2026-05-09 02:11 23.05186 121.60717 33382 ft 466 kts 202°
2026-05-09 02:11 23.02077 121.59720 33592 ft 466 kts 202°
2026-05-09 02:12 22.98956 121.58723 33797 ft 467 kts 202°
2026-05-09 02:12 22.95840 121.57729 34010 ft 467 kts 202°
2026-05-09 02:12 22.92767 121.56750 34196 ft 467 kts 202°
2026-05-09 02:12 22.89614 121.55743 34388 ft 467 kts 202°
2026-05-09 02:13 22.86497 121.54746 34570 ft 466 kts 202°
2026-05-09 02:13 22.83387 121.53749 34756 ft 466 kts 202°
2026-05-09 02:13 22.80318 121.52765 34931 ft 466 kts 202°
2026-05-09 02:13 22.77212 121.51771 35104 ft 466 kts 202°
2026-05-09 02:14 22.74099 121.50777 35282 ft 466 kts 202°
2026-05-09 02:14 22.70996 121.49791 35441 ft 465 kts 201°
2026-05-09 02:14 22.67887 121.48799 35602 ft 464 kts 203°
2026-05-09 02:14 22.64884 121.47569 35742 ft 461 kts 207°
2026-05-09 02:15 22.61918 121.46262 35903 ft 460 kts 207°
2026-05-09 02:15 22.55982 121.43646 36014 ft 460 kts 207°
2026-05-09 02:16 22.50047 121.41037 36011 ft 460 kts 207°
2026-05-09 02:16 22.44119 121.38432 36013 ft 460 kts 207°
2026-05-09 02:17 22.38173 121.35827 36016 ft 461 kts 207°
2026-05-09 02:17 22.32224 121.33221 36020 ft 461 kts 207°
2026-05-09 02:18 22.27285 121.31053 36023 ft 461 kts 207°
2026-05-09 02:18 22.21330 121.28447 36026 ft 462 kts 207°
2026-05-09 02:19 22.15371 121.25848 36029 ft 462 kts 207°
2026-05-09 02:19 22.09409 121.23237 36032 ft 463 kts 207°
2026-05-09 02:20 22.03441 121.20624 36037 ft 463 kts 207°
2026-05-09 02:20 21.97453 121.18020 36042 ft 464 kts 206°
2026-05-09 02:21 21.91479 121.15422 36044 ft 464 kts 206°
2026-05-09 02:21 21.85490 121.12810 36043 ft 464 kts 206°
2026-05-09 02:22 21.79506 121.10201 36038 ft 464 kts 206°
2026-05-09 02:22 21.73553 121.07617 36031 ft 465 kts 206°
2026-05-09 02:23 21.67561 121.05015 36029 ft 465 kts 206°
2026-05-09 02:23 21.61556 121.02404 36033 ft 465 kts 206°
2026-05-09 02:24 21.55556 120.99804 36034 ft 465 kts 206°
2026-05-09 02:24 21.49541 120.97204 36032 ft 466 kts 206°
2026-05-09 02:25 21.43531 120.94605 36027 ft 466 kts 206°
2026-05-09 02:25 21.37521 120.92001 36025 ft 466 kts 206°
2026-05-09 02:26 21.31506 120.89405 36024 ft 466 kts 206°
2026-05-09 02:26 21.25487 120.86811 36024 ft 467 kts 206°
2026-05-09 02:27 21.19460 120.84210 36029 ft 466 kts 206°
2026-05-09 02:27 21.13444 120.81615 36029 ft 467 kts 205°
2026-05-09 02:28 21.07459 120.79039 36027 ft 467 kts 205°
2026-05-09 02:28 21.01405 120.76511 36026 ft 469 kts 200°
2026-05-09 02:29 20.94929 120.75399 36025 ft 475 kts 187°
2026-05-09 02:29 20.88336 120.74870 36024 ft 475 kts 187°
2026-05-09 02:30 20.81745 120.74334 36021 ft 475 kts 187°
2026-05-09 02:30 20.75156 120.73783 36016 ft 475 kts 187°
2026-05-09 02:31 20.68575 120.73232 36012 ft 475 kts 187°
2026-05-09 02:31 20.61988 120.72692 36014 ft 475 kts 187°
2026-05-09 02:32 20.55399 120.72154 36013 ft 475 kts 187°
2026-05-09 02:32 20.48810 120.71607 36021 ft 475 kts 187°
2026-05-09 02:33 20.42226 120.71064 36015 ft 474 kts 187°
2026-05-09 02:33 20.35641 120.70525 36017 ft 474 kts 186°
2026-05-09 02:34 20.29101 120.69992 36020 ft 474 kts 186°
2026-05-09 02:34 20.22528 120.69455 36016 ft 474 kts 186°
2026-05-09 02:35 20.15947 120.68908 36011 ft 473 kts 186°
2026-05-09 02:35 20.09387 120.68368 36012 ft 473 kts 186°
2026-05-09 02:36 20.02819 120.67840 36013 ft 473 kts 186°
2026-05-09 02:36 19.96260 120.67305 36011 ft 472 kts 186°
2026-05-09 02:37 19.89708 120.66767 36009 ft 472 kts 186°
2026-05-09 02:37 19.83153 120.66235 36005 ft 472 kts 186°
2026-05-09 02:38 19.76610 120.65705 36002 ft 471 kts 186°
2026-05-09 02:38 19.70074 120.65168 35997 ft 471 kts 186°
2026-05-09 02:39 19.63539 120.64633 35993 ft 471 kts 186°
2026-05-09 02:39 19.57013 120.64107 35990 ft 470 kts 186°
2026-05-09 02:40 19.50487 120.63577 35986 ft 470 kts 186°
2026-05-09 02:40 19.44006 120.63053 35982 ft 470 kts 186°
2026-05-09 02:41 19.37481 120.62530 35978 ft 470 kts 186°
2026-05-09 02:41 19.30963 120.62003 35965 ft 470 kts 186°
2026-05-09 02:42 19.24445 120.61476 35978 ft 470 kts 186°
2026-05-09 02:42 19.17926 120.60949 35970 ft 470 kts 186°
2026-05-09 02:43 19.11400 120.60421 35963 ft 470 kts 185°
2026-05-09 02:43 19.04872 120.59893 35959 ft 471 kts 185°
2026-05-09 02:44 18.98346 120.59367 35955 ft 471 kts 185°
2026-05-09 02:44 18.91808 120.58840 35948 ft 471 kts 185°
2026-05-09 02:45 18.85273 120.58313 35943 ft 471 kts 185°
2026-05-09 02:45 18.78743 120.57790 35935 ft 471 kts 185°
2026-05-09 02:46 18.72208 120.57269 35944 ft 471 kts 185°
2026-05-09 02:46 18.65679 120.56746 35935 ft 471 kts 185°
2026-05-09 02:47 18.59188 120.56221 35936 ft 471 kts 185°
2026-05-09 02:47 18.52653 120.55691 35944 ft 471 kts 185°
2026-05-09 02:48 18.46130 120.55168 35943 ft 470 kts 185°
2026-05-09 02:48 18.39606 120.54651 35947 ft 469 kts 184°
2026-05-09 02:49 18.33101 120.54126 35950 ft 469 kts 184°
2026-05-09 02:49 18.26594 120.53606 35948 ft 469 kts 184°
2026-05-09 02:50 18.20092 120.53081 35950 ft 468 kts 184°
2026-05-09 02:50 18.13603 120.52494 35947 ft 468 kts 186°
2026-05-09 02:51 18.07128 120.51700 35945 ft 468 kts 187°
2026-05-09 02:51 18.00648 120.50861 35942 ft 469 kts 187°
2026-05-09 02:52 17.94156 120.50071 35939 ft 469 kts 186°
2026-05-09 02:52 17.87669 120.49315 35936 ft 469 kts 186°
2026-05-09 02:53 17.81220 120.48562 35932 ft 469 kts 186°
2026-05-09 02:53 17.74725 120.47802 35931 ft 470 kts 186°
2026-05-09 02:54 17.68225 120.47032 35933 ft 470 kts 186°
2026-05-09 02:54 17.61726 120.46261 35932 ft 470 kts 186°
2026-05-09 02:55 17.58469 120.45876 35932 ft 470 kts 186°
2026-05-09 02:55 17.54744 120.45641 35885 ft 469 kts 181°
2026-05-09 02:56 17.48216 120.45063 35938 ft 472 kts 188°
2026-05-09 02:56 17.41718 120.44008 35945 ft 472 kts 188°
2026-05-09 02:57 17.35217 120.43059 35949 ft 472 kts 187°
2026-05-09 02:57 17.28683 120.42298 35953 ft 472 kts 186°
2026-05-09 02:58 17.22152 120.41585 35952 ft 471 kts 186°
2026-05-09 02:58 17.15679 120.40844 35952 ft 471 kts 186°
2026-05-09 02:59 17.09155 120.40069 35949 ft 471 kts 186°
2026-05-09 02:59 17.02638 120.39290 35954 ft 472 kts 186°
2026-05-09 03:00 16.96099 120.38531 35953 ft 472 kts 186°
2026-05-09 03:00 16.89572 120.37766 35952 ft 472 kts 186°
2026-05-09 03:01 16.83042 120.36990 35953 ft 472 kts 186°
2026-05-09 03:01 16.76514 120.36228 35954 ft 472 kts 186°
2026-05-09 03:02 16.69978 120.35520 35951 ft 472 kts 184°
2026-05-09 03:02 16.63429 120.35063 35954 ft 472 kts 182°
2026-05-09 03:03 16.56883 120.34693 35953 ft 471 kts 182°
2026-05-09 03:03 16.50387 120.34285 35950 ft 471 kts 183°
2026-05-09 03:04 16.43851 120.33832 35946 ft 471 kts 183°
2026-05-09 03:04 16.37307 120.33368 35943 ft 472 kts 183°
2026-05-09 03:05 16.30761 120.32913 35946 ft 471 kts 183°
2026-05-09 03:05 16.24215 120.32474 35945 ft 471 kts 182°
2026-05-09 03:06 16.17679 120.32035 35945 ft 471 kts 183°
2026-05-09 03:06 16.11142 120.31587 35946 ft 471 kts 183°
2026-05-09 03:07 16.05711 120.31215 35947 ft 471 kts 183°
2026-05-09 03:07 15.99167 120.30771 35953 ft 471 kts 183°
2026-05-09 03:08 15.92631 120.30327 35952 ft 471 kts 183°
2026-05-09 03:08 15.86094 120.29882 35952 ft 471 kts 183°
2026-05-09 03:09 15.79552 120.29437 35956 ft 471 kts 183°
2026-05-09 03:09 15.73018 120.28993 35956 ft 471 kts 182°
2026-05-09 03:10 15.66467 120.28547 35961 ft 471 kts 183°
2026-05-09 03:10 15.59926 120.28101 35964 ft 471 kts 182°
2026-05-09 03:11 15.53425 120.27660 35961 ft 471 kts 182°
2026-05-09 03:11 15.46845 120.27218 35964 ft 471 kts 182°
2026-05-09 03:12 15.40455 120.26791 35964 ft 471 kts 182°
2026-05-09 03:12 15.33905 120.26349 35963 ft 471 kts 182°
2026-05-09 03:13 15.24088 120.25686 35965 ft 471 kts 183°
2026-05-09 03:13 15.17536 120.25246 35962 ft 471 kts 183°
2026-05-09 03:14 15.11029 120.24807 35960 ft 471 kts 183°
2026-05-09 03:14 15.04486 120.24363 35945 ft 472 kts 183°
2026-05-09 03:15 14.97933 120.23921 35949 ft 472 kts 183°
2026-05-09 03:15 14.91376 120.23476 35945 ft 472 kts 183°
2026-05-09 03:16 14.84818 120.23033 35945 ft 472 kts 183°
2026-05-09 03:16 14.78306 120.22601 35946 ft 472 kts 183°
2026-05-09 03:17 14.71881 120.22004 35949 ft 472 kts 186°
2026-05-09 03:17 14.65368 120.21101 35952 ft 473 kts 187°
2026-05-09 03:18 14.58848 120.20160 35954 ft 473 kts 187°
2026-05-09 03:18 14.52329 120.19300 35956 ft 472 kts 186°
2026-05-09 03:19 14.45808 120.18479 35952 ft 472 kts 186°
2026-05-09 03:19 14.39288 120.17649 35953 ft 472 kts 186°
2026-05-09 03:20 14.32774 120.16808 35948 ft 472 kts 186°
2026-05-09 03:20 14.26266 120.15965 35944 ft 471 kts 186°
2026-05-09 03:21 14.19764 120.15128 35942 ft 471 kts 186°
2026-05-09 03:21 14.13263 120.14293 35942 ft 470 kts 186°
2026-05-09 03:22 14.06762 120.13457 35938 ft 470 kts 186°
2026-05-09 03:22 14.00267 120.12611 35933 ft 470 kts 186°
2026-05-09 03:23 13.93811 120.11781 35931 ft 470 kts 186°
2026-05-09 03:23 13.87323 120.10947 35930 ft 470 kts 186°
2026-05-09 03:24 13.80860 120.09950 35924 ft 470 kts 190°
2026-05-09 03:24 13.74449 120.08603 35921 ft 470 kts 192°
2026-05-09 03:25 13.68047 120.07190 35914 ft 471 kts 191°
2026-05-09 03:25 13.61633 120.05858 35915 ft 471 kts 191°
2026-05-09 03:26 13.55200 120.04582 35912 ft 470 kts 191°
2026-05-09 03:26 13.48771 120.03303 35914 ft 470 kts 191°
2026-05-09 03:27 13.42353 120.02007 35919 ft 470 kts 191°
2026-05-09 03:27 13.35934 120.00705 35919 ft 470 kts 191°
2026-05-09 03:28 13.29556 119.99416 35920 ft 470 kts 191°
2026-05-09 03:28 13.23145 119.98118 35926 ft 469 kts 191°
2026-05-09 03:29 13.16747 119.96832 35925 ft 468 kts 191°
2026-05-09 03:29 13.10357 119.95552 35922 ft 468 kts 191°
2026-05-09 03:30 13.03970 119.94265 35924 ft 467 kts 191°
2026-05-09 03:30 12.97587 119.92984 35918 ft 467 kts 191°
2026-05-09 03:31 12.91207 119.91706 35918 ft 467 kts 191°
2026-05-09 03:31 12.84837 119.90429 35918 ft 466 kts 191°
2026-05-09 03:32 12.78467 119.89149 35912 ft 466 kts 191°
2026-05-09 03:32 12.72141 119.87873 35914 ft 466 kts 191°
2026-05-09 03:33 12.65781 119.86599 35912 ft 466 kts 191°
2026-05-09 03:33 12.59412 119.85327 35912 ft 466 kts 191°
2026-05-09 03:34 12.53055 119.84052 35911 ft 465 kts 191°
2026-05-09 03:34 12.46702 119.82782 35910 ft 465 kts 191°
2026-05-09 03:35 12.40354 119.81508 35909 ft 465 kts 191°
2026-05-09 03:35 12.34002 119.80236 35906 ft 465 kts 191°
2026-05-09 03:36 12.27660 119.78967 35906 ft 464 kts 191°
2026-05-09 03:36 12.21321 119.77698 35901 ft 464 kts 191°
2026-05-09 03:37 12.14980 119.76430 35899 ft 464 kts 191°
2026-05-09 03:37 12.08625 119.75162 35896 ft 465 kts 191°
2026-05-09 03:38 12.02306 119.73902 35895 ft 465 kts 191°
2026-05-09 03:38 11.95957 119.72633 35897 ft 465 kts 191°
2026-05-09 03:39 11.89604 119.71359 35896 ft 465 kts 191°
2026-05-09 03:39 11.83250 119.70089 35902 ft 465 kts 192°
2026-05-09 03:40 11.76896 119.68824 35898 ft 465 kts 192°
2026-05-09 03:40 11.70593 119.67360 35899 ft 464 kts 201°
2026-05-09 03:41 11.64847 119.64431 35900 ft 462 kts 211°
2026-05-09 03:41 11.59273 119.61174 35900 ft 462 kts 211°
2026-05-09 03:42 11.53696 119.57910 35900 ft 462 kts 211°
2026-05-09 03:42 11.48160 119.54674 35904 ft 461 kts 211°
2026-05-09 03:43 11.42594 119.51435 35899 ft 461 kts 211°
2026-05-09 03:43 11.37031 119.48196 35909 ft 460 kts 211°
2026-05-09 03:44 11.31476 119.44964 35904 ft 459 kts 211°
2026-05-09 03:44 11.25945 119.41734 35903 ft 458 kts 211°
2026-05-09 03:45 11.20421 119.38519 35904 ft 457 kts 211°
2026-05-09 03:45 11.14904 119.35309 35902 ft 456 kts 211°
2026-05-09 03:46 11.09406 119.32106 35898 ft 455 kts 211°
2026-05-09 03:46 11.03908 119.28904 35899 ft 455 kts 211°
2026-05-09 03:47 10.98408 119.25712 35898 ft 455 kts 211°
2026-05-09 03:47 10.92914 119.22526 35895 ft 455 kts 211°
2026-05-09 03:48 10.87413 119.19332 35894 ft 454 kts 211°
2026-05-09 03:48 10.81929 119.16145 35891 ft 454 kts 211°
2026-05-09 03:49 10.76440 119.12963 35888 ft 454 kts 211°
2026-05-09 03:49 10.70954 119.09787 35888 ft 454 kts 211°
2026-05-09 03:50 10.65461 119.06606 35888 ft 454 kts 211°
2026-05-09 03:50 10.59970 119.03421 35886 ft 454 kts 211°
2026-05-09 03:51 10.54481 119.00236 35886 ft 454 kts 211°
2026-05-09 03:51 10.49029 118.97083 35888 ft 454 kts 210°
2026-05-09 03:52 10.43539 118.93904 35885 ft 454 kts 211°
2026-05-09 03:52 10.38054 118.90726 35883 ft 454 kts 211°
2026-05-09 03:53 10.32537 118.87533 35887 ft 454 kts 211°
2026-05-09 03:53 10.27048 118.84356 35887 ft 454 kts 211°
2026-05-09 03:54 10.22486 118.81725 35883 ft 454 kts 210°
2026-05-09 03:54 10.16996 118.78557 35880 ft 454 kts 210°
2026-05-09 03:55 10.11499 118.75386 35878 ft 455 kts 210°
2026-05-09 03:55 10.05106 118.71694 35890 ft 455 kts 210°
2026-05-09 03:56 9.99605 118.68520 35896 ft 455 kts 210°
2026-05-09 03:56 9.94987 118.65857 35901 ft 456 kts 211°
2026-05-09 03:57 9.89480 118.62681 35904 ft 456 kts 210°
2026-05-09 03:57 9.83958 118.59497 35905 ft 456 kts 211°
2026-05-09 03:58 9.78540 118.56239 35906 ft 456 kts 212°
2026-05-09 03:58 9.73129 118.52890 35903 ft 456 kts 212°
2026-05-09 03:59 9.67704 118.49551 35898 ft 456 kts 212°
2026-05-09 03:59 9.62261 118.46240 35892 ft 456 kts 211°
2026-05-09 04:00 9.56815 118.42939 35894 ft 456 kts 211°
2026-05-09 04:00 9.51368 118.39628 35896 ft 456 kts 211°
2026-05-09 04:01 9.45930 118.36319 35898 ft 456 kts 211°
2026-05-09 04:01 9.40484 118.33007 35900 ft 456 kts 211°
2026-05-09 04:02 9.35046 118.29697 35896 ft 456 kts 211°
2026-05-09 04:02 9.29608 118.26385 35899 ft 456 kts 211°
2026-05-09 04:03 9.24212 118.23109 35904 ft 456 kts 211°
2026-05-09 04:03 9.18774 118.19816 35904 ft 455 kts 211°
2026-05-09 04:04 9.13338 118.16522 35900 ft 455 kts 211°
2026-05-09 04:04 9.07905 118.13223 35893 ft 456 kts 211°
2026-05-09 04:05 9.02468 118.09920 35893 ft 456 kts 211°
2026-05-09 04:05 8.97024 118.06622 35895 ft 456 kts 211°
2026-05-09 04:06 8.91582 118.03330 35892 ft 456 kts 211°
2026-05-09 04:06 8.86147 118.00034 35891 ft 455 kts 211°
2026-05-09 04:07 8.80714 117.96747 35889 ft 455 kts 211°
2026-05-09 04:07 8.75276 117.93455 35888 ft 455 kts 211°
2026-05-09 04:08 8.69835 117.90158 35888 ft 456 kts 211°
2026-05-09 04:08 8.64395 117.86862 35891 ft 456 kts 211°
2026-05-09 04:09 8.58953 117.83571 35888 ft 456 kts 211°
2026-05-09 04:09 8.53508 117.80283 35884 ft 456 kts 211°
2026-05-09 04:10 8.48062 117.76991 35882 ft 456 kts 211°
2026-05-09 04:10 8.42621 117.73697 35877 ft 456 kts 211°
2026-05-09 04:11 8.37175 117.70411 35878 ft 456 kts 211°
2026-05-09 04:11 8.31765 117.67147 35876 ft 456 kts 211°
2026-05-09 04:12 8.26329 117.63855 35874 ft 456 kts 211°
2026-05-09 04:12 8.20882 117.60568 35873 ft 456 kts 211°
2026-05-09 04:13 8.15423 117.57285 35872 ft 456 kts 211°
2026-05-09 04:13 8.09969 117.54008 35875 ft 456 kts 211°
2026-05-09 04:14 8.04526 117.50725 35876 ft 456 kts 211°
2026-05-09 04:14 7.99082 117.47443 35873 ft 456 kts 211°
2026-05-09 04:15 7.93641 117.44159 35873 ft 456 kts 211°
2026-05-09 04:15 7.88192 117.40869 35872 ft 457 kts 211°
2026-05-09 04:16 7.82735 117.37581 35873 ft 457 kts 211°
2026-05-09 04:16 7.77272 117.34295 35872 ft 457 kts 211°
2026-05-09 04:17 7.71815 117.31013 35872 ft 457 kts 211°
2026-05-09 04:17 7.66391 117.27651 35873 ft 457 kts 214°
2026-05-09 04:18 7.61188 117.23980 35874 ft 457 kts 216°
2026-05-09 04:18 7.56054 117.20209 35874 ft 457 kts 216°
2026-05-09 04:19 7.50881 117.16487 35873 ft 456 kts 215°
2026-05-09 04:19 7.45720 117.12849 35871 ft 456 kts 215°
2026-05-09 04:20 7.40513 117.09198 35868 ft 456 kts 215°
2026-05-09 04:20 7.35314 117.05539 35868 ft 456 kts 215°
2026-05-09 04:21 7.30125 117.01877 35869 ft 455 kts 216°
2026-05-09 04:22 7.22347 116.96382 35868 ft 455 kts 216°
2026-05-09 04:22 7.17161 116.92722 35861 ft 455 kts 216°
2026-05-09 04:23 7.11969 116.89068 35856 ft 455 kts 216°
2026-05-09 04:23 7.06777 116.85406 35854 ft 456 kts 216°
2026-05-09 04:24 7.01581 116.81742 35849 ft 456 kts 216°
2026-05-09 04:24 6.98980 116.79910 35079 ft 457 kts 216°
2026-05-09 04:24 6.96347 116.78057 33407 ft 467 kts 215°
2026-05-09 04:24 6.93663 116.76172 31947 ft 471 kts 215°
2026-05-09 04:25 6.90982 116.74291 30764 ft 468 kts 215°
2026-05-09 04:25 6.88333 116.72431 29684 ft 462 kts 215°
2026-05-09 04:25 6.85707 116.70585 28515 ft 457 kts 214°
2026-05-09 04:25 6.83122 116.68763 27423 ft 451 kts 214°
2026-05-09 04:26 6.80571 116.66961 26384 ft 446 kts 214°
2026-05-09 04:26 6.78051 116.65180 25403 ft 440 kts 214°
2026-05-09 04:26 6.75560 116.63423 24525 ft 433 kts 214°
2026-05-09 04:26 6.73136 116.61717 24038 ft 417 kts 213°
2026-05-09 04:27 6.70831 116.60098 23562 ft 403 kts 213°
2026-05-09 04:27 6.68565 116.58510 23038 ft 393 kts 213°
2026-05-09 04:27 6.66331 116.56944 22557 ft 390 kts 213°
2026-05-09 04:27 6.64113 116.55387 22083 ft 388 kts 213°
2026-05-09 04:28 6.61906 116.53837 21619 ft 386 kts 213°
2026-05-09 04:28 6.59711 116.52293 21127 ft 385 kts 213°
2026-05-09 04:28 6.57405 116.50945 20688 ft 381 kts 202°
2026-05-09 04:28 6.54970 116.49867 20394 ft 384 kts 201°
2026-05-09 04:29 6.52526 116.48782 20070 ft 383 kts 201°
2026-05-09 04:29 6.50097 116.47699 19748 ft 382 kts 202°
2026-05-09 04:29 6.47673 116.46614 19420 ft 380 kts 201°
2026-05-09 04:29 6.45264 116.45537 19095 ft 378 kts 201°
2026-05-09 04:30 6.42868 116.44468 18777 ft 376 kts 201°
2026-05-09 04:30 6.40480 116.43406 18459 ft 374 kts 201°
2026-05-09 04:30 6.38107 116.42351 18141 ft 372 kts 201°
2026-05-09 04:30 6.35741 116.41298 17797 ft 370 kts 201°
2026-05-09 04:31 6.33391 116.40252 17476 ft 369 kts 201°
2026-05-09 04:31 6.31051 116.39211 17163 ft 367 kts 201°
2026-05-09 04:31 6.28720 116.38173 16845 ft 365 kts 201°
2026-05-09 04:31 6.26414 116.37148 16538 ft 363 kts 201°
2026-05-09 04:32 6.24101 116.36122 16214 ft 362 kts 201°
2026-05-09 04:32 6.21805 116.35104 15918 ft 360 kts 201°
2026-05-09 04:32 6.19517 116.34089 15614 ft 358 kts 201°
2026-05-09 04:32 6.17249 116.33081 15308 ft 356 kts 202°
2026-05-09 04:33 6.14988 116.32073 15004 ft 355 kts 202°
2026-05-09 04:33 6.12743 116.31072 14702 ft 353 kts 202°
2026-05-09 04:33 6.10503 116.30074 14394 ft 351 kts 202°
2026-05-09 04:33 6.08286 116.29148 14097 ft 348 kts 199°
2026-05-09 04:34 6.06019 116.28316 13792 ft 346 kts 197°
2026-05-09 04:34 6.03739 116.27544 13481 ft 344 kts 196°
2026-05-09 04:34 6.01468 116.26799 13172 ft 343 kts 196°
2026-05-09 04:34 5.99208 116.26056 12856 ft 341 kts 196°
2026-05-09 04:35 5.96961 116.25304 12561 ft 340 kts 197°
2026-05-09 04:35 5.94730 116.24544 12277 ft 338 kts 197°
2026-05-09 04:35 5.92504 116.23777 11973 ft 337 kts 197°
2026-05-09 04:35 5.90292 116.23014 11673 ft 335 kts 197°
2026-05-09 04:36 5.88096 116.22256 11388 ft 334 kts 197°
2026-05-09 04:36 5.85899 116.21495 11108 ft 333 kts 197°
2026-05-09 04:36 5.83717 116.20739 10813 ft 331 kts 197°
2026-05-09 04:36 5.81544 116.19988 10514 ft 330 kts 198°
2026-05-09 04:37 5.79381 116.19239 10229 ft 328 kts 197°
2026-05-09 04:37 5.77246 116.18500 10037 ft 319 kts 197°
2026-05-09 04:37 5.75190 116.17791 9906 ft 308 kts 197°
2026-05-09 04:37 5.73183 116.17099 9707 ft 301 kts 197°
2026-05-09 04:38 5.71203 116.16415 9485 ft 300 kts 197°
2026-05-09 04:38 5.69237 116.15735 9253 ft 298 kts 197°
2026-05-09 04:38 5.67276 116.15058 9005 ft 297 kts 197°
2026-05-09 04:38 5.65324 116.14387 8742 ft 296 kts 197°
2026-05-09 04:39 5.63380 116.13718 8490 ft 295 kts 197°
2026-05-09 04:39 5.61483 116.13016 8259 ft 295 kts 205°
2026-05-09 04:39 5.59897 116.11735 8010 ft 295 kts 232°
2026-05-09 04:39 5.59016 116.09893 7674 ft 296 kts 256°
2026-05-09 04:40 5.59041 116.07815 7123 ft 300 kts 287°
2026-05-09 04:40 5.59792 116.05885 6778 ft 295 kts 294°
2026-05-09 04:40 5.60595 116.03988 6363 ft 295 kts 294°
2026-05-09 04:40 5.61414 116.02063 5638 ft 305 kts 293°
2026-05-09 04:41 5.62240 116.00114 5339 ft 299 kts 293°
2026-05-09 04:41 5.63034 115.98229 5191 ft 287 kts 293°
2026-05-09 04:41 5.63796 115.96422 5058 ft 276 kts 293°
2026-05-09 04:41 5.64628 115.94720 4906 ft 267 kts 308°
2026-05-09 04:42 5.66065 115.93677 4756 ft 252 kts 345°
2026-05-09 04:42 5.67198 115.93561 4573 ft 247 kts
2026-05-09 04:42 5.69332 115.94263 4214 ft 238 kts 26°
2026-05-09 04:42 5.70308 115.94758 4032 ft 236 kts 28°
2026-05-09 04:43 5.71749 115.95521 3771 ft 233 kts 28°
2026-05-09 04:43 5.73177 115.96247 3536 ft 228 kts 26°
2026-05-09 04:43 5.74609 115.96934 3301 ft 228 kts 25°
2026-05-09 04:43 5.76049 115.97590 3058 ft 227 kts 24°
2026-05-09 04:44 5.77960 115.98428 2735 ft 225 kts 22°
2026-05-09 04:44 5.78932 115.98843 2614 ft 224 kts 22°
2026-05-09 04:44 5.80823 115.99651 2538 ft 223 kts 22°
2026-05-09 04:44 5.81788 116.00063 2540 ft 223 kts 22°
2026-05-09 04:45 5.83218 116.00673 2541 ft 223 kts 22°
2026-05-09 04:45 5.84647 116.01279 2548 ft 223 kts 22°
2026-05-09 04:45 5.86057 116.01877 2539 ft 223 kts 22°
2026-05-09 04:45 5.87484 116.02480 2536 ft 222 kts 22°
2026-05-09 04:46 5.88910 116.03085 2537 ft 223 kts 22°
2026-05-09 04:46 5.90338 116.03690 2535 ft 223 kts 22°
2026-05-09 04:46 5.91763 116.04292 2539 ft 223 kts 22°
2026-05-09 04:46 5.93243 116.04709 2534 ft 221 kts 356°
2026-05-09 04:47 5.94635 116.04150 2533 ft 221 kts 315°
2026-05-09 04:47 5.95307 116.02791 2536 ft 222 kts 278°
2026-05-09 04:47 5.95401 116.01235 2535 ft 224 kts 272°
2026-05-09 04:47 5.95446 115.99666 2539 ft 225 kts 272°
2026-05-09 04:48 5.95489 115.98096 2535 ft 225 kts 272°
2026-05-09 04:48 5.95532 115.96525 2535 ft 225 kts 272°
2026-05-09 04:48 5.95579 115.94953 2537 ft 225 kts 275°
2026-05-09 04:48 5.95799 115.93398 2541 ft 225 kts 282°
2026-05-09 04:49 5.96139 115.91865 2537 ft 224 kts 284°
2026-05-09 04:49 5.96508 115.90339 2537 ft 225 kts 284°
2026-05-09 04:49 5.96880 115.88809 2542 ft 226 kts 284°
2026-05-09 04:49 5.97244 115.87278 2541 ft 225 kts 284°
2026-05-09 04:50 5.97602 115.85747 2539 ft 225 kts 284°
2026-05-09 04:50 5.97958 115.84214 2546 ft 225 kts 284°
2026-05-09 04:50 5.98310 115.82679 2546 ft 226 kts 283°
2026-05-09 04:50 5.98658 115.81138 2546 ft 226 kts 283°
2026-05-09 04:51 5.99002 115.79601 2544 ft 226 kts 284°
2026-05-09 04:51 5.99347 115.78059 2545 ft 227 kts 283°
2026-05-09 04:51 5.99679 115.76509 2547 ft 226 kts 278°
2026-05-09 04:51 5.99477 115.74961 2550 ft 228 kts 244°
2026-05-09 04:52 5.98447 115.73777 2550 ft 228 kts 213°
2026-05-09 04:52 5.97155 115.72879 2549 ft 230 kts 218°
2026-05-09 04:52 5.96087 115.71685 2548 ft 228 kts 246°
2026-05-09 04:52 5.95785 115.70168 2548 ft 226 kts 276°
2026-05-09 04:53 5.96250 115.68684 2552 ft 224 kts 305°
2026-05-09 04:53 5.97363 115.67629 2550 ft 221 kts 335°
2026-05-09 04:53 5.98836 115.67270 2556 ft 220 kts
2026-05-09 04:53 6.00283 115.67690 2549 ft 219 kts 33°
2026-05-09 04:54 6.01332 115.68780 2553 ft 220 kts 62°
2026-05-09 04:54 6.01709 115.70254 2553 ft 221 kts 91°
2026-05-09 04:54 6.01367 115.71765 2553 ft 224 kts 108°
2026-05-09 04:54 6.00860 115.73247 2549 ft 225 kts 108°
2026-05-09 04:55 6.00345 115.74728 2546 ft 225 kts 108°
2026-05-09 04:55 5.99831 115.76206 2556 ft 224 kts 108°
2026-05-09 04:55 5.99138 115.77599 2554 ft 225 kts 130°
2026-05-09 04:55 5.97853 115.78480 2551 ft 227 kts 162°
2026-05-09 04:56 5.96287 115.78556 2550 ft 229 kts 195°
2026-05-09 04:56 5.94913 115.77798 2544 ft 228 kts 227°
2026-05-09 04:56 5.94142 115.76436 2537 ft 225 kts 259°
2026-05-09 04:56 5.94187 115.74890 2542 ft 223 kts 288°
2026-05-09 04:57 5.94683 115.73413 2545 ft 224 kts 290°
2026-05-09 04:57 5.95195 115.71935 2549 ft 224 kts 290°
2026-05-09 04:57 5.95708 115.70457 2550 ft 225 kts 290°
2026-05-09 04:57 5.96217 115.68976 2548 ft 224 kts 290°
2026-05-09 04:58 5.96714 115.67488 2549 ft 225 kts 289°
2026-05-09 04:58 5.97200 115.65995 2553 ft 224 kts 285°
2026-05-09 04:58 5.97249 115.64435 2552 ft 226 kts 257°
2026-05-09 04:58 5.96479 115.62957 2555 ft 259 kts 226°
2026-05-09 04:59 5.94902 115.62054 2549 ft 268 kts 190°
2026-05-09 04:59 5.93072 115.62203 2550 ft 267 kts 156°
2026-05-09 04:59 5.91613 115.63323 2556 ft 267 kts 130°
2026-05-09 04:59 5.90375 115.64718 2541 ft 267 kts 130°
2026-05-09 05:00 5.89148 115.66117 2540 ft 267 kts 130°
2026-05-09 05:00 5.87919 115.67518 2548 ft 267 kts 130°
2026-05-09 05:00 5.86684 115.68922 2545 ft 268 kts 130°
2026-05-09 05:00 5.85445 115.70325 2544 ft 269 kts 131°
2026-05-09 05:01 5.84204 115.71728 2533 ft 268 kts 130°
2026-05-09 05:01 5.82962 115.73129 2542 ft 270 kts 131°
2026-05-09 05:01 5.81714 115.74536 2544 ft 269 kts 130°
2026-05-09 05:01 5.80463 115.75945 2536 ft 270 kts 131°
2026-05-09 05:02 5.79213 115.77348 2533 ft 270 kts 130°
2026-05-09 05:02 5.77979 115.78731 2540 ft 269 kts 131°
2026-05-09 05:02 5.76730 115.80140 2549 ft 270 kts 131°
2026-05-09 05:02 5.75465 115.81568 2545 ft 270 kts 131°
2026-05-09 05:03 5.74229 115.82961 2538 ft 270 kts 131°
2026-05-09 05:03 5.72977 115.84371 2537 ft 271 kts 131°
2026-05-09 05:03 5.71721 115.85787 2539 ft 271 kts 131°
2026-05-09 05:03 5.70534 115.87249 2538 ft 270 kts 121°
2026-05-09 05:04 5.69772 115.88955 2536 ft 265 kts 104°
2026-05-09 05:04 5.69538 115.90716 2539 ft 246 kts 88°
2026-05-09 05:04 5.69762 115.92355 2537 ft 230 kts 72°
2026-05-09 05:04 5.70345 115.93786 2527 ft 214 kts 58°
2026-05-09 05:05 5.71185 115.94959 2540 ft 204 kts 45°
2026-05-09 05:05 5.72240 115.95896 2543 ft 201 kts 32°
2026-05-09 05:05 5.73432 115.96557 2569 ft 188 kts 21°
2026-05-09 05:05 5.74586 115.97043 2545 ft 172 kts 21°
2026-05-09 05:06 5.75639 115.97487 2531 ft 156 kts 21°
2026-05-09 05:06 5.76621 115.97901 2551 ft 151 kts 21°
2026-05-09 05:06 5.77582 115.98307 2566 ft 150 kts 21°
2026-05-09 05:06 5.78542 115.98712 2559 ft 150 kts 20°
2026-05-09 05:07 5.79505 115.99118 2476 ft 150 kts 20°
2026-05-09 05:07 5.80459 115.99521 2337 ft 148 kts 21°
2026-05-09 05:07 5.81407 115.99921 2168 ft 147 kts 21°
2026-05-09 05:07 5.82351 116.00319 1986 ft 146 kts 21°
2026-05-09 05:08 5.83271 116.00708 1814 ft 143 kts 19°
2026-05-09 05:08 5.84183 116.01092 1649 ft 142 kts 21°
2026-05-09 05:08 5.85095 116.01477 1450 ft 142 kts 20°
2026-05-09 05:08 5.85999 116.01859 1278 ft 141 kts 21°
2026-05-09 05:09 5.86887 116.02234 1092 ft 140 kts 21°
2026-05-09 05:09 5.87788 116.02614 908 ft 140 kts 22°
2026-05-09 05:09 5.88687 116.02994 725 ft 141 kts 21°
2026-05-09 05:09 5.89586 116.03370 558 ft 140 kts 22°
2026-05-09 05:10 5.90486 116.03751 378 ft 141 kts 21°
2026-05-09 05:10 5.91391 116.04130 154 ft 140 kts 20°
2026-05-09 05:10 5.92269 116.04502 35 ft 129 kts 21°
2026-05-09 05:10 5.92972 116.04798 29 ft 85 kts 23°
2026-05-09 05:11 5.93381 116.04969 29 ft 52 kts 23°
2026-05-09 05:11 5.93567 116.05057 29 ft 13 kts 47°
2026-05-09 05:11 5.93533 116.05107 29 ft 9 kts 158°
2026-05-09 05:11 5.93475 116.05131 29 ft 9 kts 158°
2026-05-09 05:12 5.93422 116.05152 29 ft 9 kts 160°
2026-05-09 05:12 5.93334 116.05141 29 ft 14 kts 203°
2026-05-09 05:12 5.93232 116.05097 29 ft 16 kts 202°
2026-05-09 05:12 5.93130 116.05055 29 ft 15 kts 202°
2026-05-09 05:13 5.93038 116.05016 29 ft 14 kts 203°
2026-05-09 05:13 5.92945 116.04976 29 ft 17 kts 203°
2026-05-09 05:13 5.92813 116.04920 29 ft 23 kts 202°
2026-05-09 05:13 5.92662 116.04856 29 ft 23 kts 202°
2026-05-09 05:14 5.92527 116.04798 29 ft 21 kts 203°
2026-05-09 05:14 5.92421 116.04777 29 ft 13 kts 148°
2026-05-09 05:14 5.92378 116.04843 29 ft 10 kts 149°
2026-05-09 05:14 5.92320 116.04860 29 ft 4 kts 159°
2026-05-09 05:15 5.92310 116.04877 29 ft 2 kts 83°
2026-05-09 05:15 5.92318 116.04901 29 ft 5 kts 67°
2026-05-09 05:15 5.92332 116.04935 29 ft 5 kts 68°
2026-05-09 05:15 5.92337 116.04946 29 ft 1 kts 68°
2026-05-09 05:16 5.92338 116.04949 29 ft 0 kts 68°
2026-05-09 05:16 5.92339 116.04951 29 ft 0 kts 68°